This is the latest recevied weather packets stored in our database for station/object G4CVN. If no packets are shown the sender has not sent any weather packets the latest 10 day(s).
| Time | Temp. | Humidity | Pressure | Rain* | Wind** | Luminosity | Snow |
|---|---|---|---|---|---|---|---|
| 1778047517 | 8.33° C | 86% | 1016.4 hPa | 0 mm | - | 35 W/m² | - |
| 1778045737 | 8.33° C | 84% | 1016.2 hPa | 0 mm | - | 21 W/m² | - |
| 1778045117 | 8.33° C | 84% | 1016.2 hPa | 0 mm | - | 17 W/m² | - |
| 1778041537 | 9.44° C | 84% | 1016 hPa | 0 mm | - | 0 W/m² | - |
| 1778040317 | 9.44° C | 83% | 1015.9 hPa | 0 mm | - | 0 W/m² | - |
| 1778038517 | 10° C | 82% | 1015.8 hPa | 0 mm | - | 0 W/m² | - |
| 1778035517 | 10° C | 81% | 1015.9 hPa | 0 mm | - | 0 W/m² | - |
| 1778033717 | 10° C | 81% | 1016 hPa | 0 mm | - | 0 W/m² | - |
| 1778030757 | 10.56° C | 81% | 1016.2 hPa | 0 mm | - | 0 W/m² | - |
| 1778029517 | 11.11° C | 81% | 1016.2 hPa | 0 mm | - | 0 W/m² | - |
| 1778026557 | 11.67° C | 79% | 1016.4 hPa | 0 mm | - | 0 W/m² | - |
| 1778024717 | 11.67° C | 77% | 1016.3 hPa | 0 mm | - | 0 W/m² | - |
| 1778024117 | 11.67° C | 76% | 1016.2 hPa | 0 mm | - | 0 W/m² | - |
| 1778021717 | 11.67° C | 74% | 1016.3 hPa | 0 mm | - | 0 W/m² | - |
| 1778020517 | 12.22° C | 73% | 1016.3 hPa | 0 mm | - | 0 W/m² | - |
| 1777999517 | 16.11° C | 52% | 1014.8 hPa | 0 mm | - | 66 W/m² | - |
| 1777994717 | 17.22° C | 53% | 1015.1 hPa | 0 mm | - | 117 W/m² | - |
| 1777991737 | 17.78° C | 52% | 1015.2 hPa | 0 mm | - | 154 W/m² | - |
| 1777989917 | 17.78° C | 53% | 1015.3 hPa | 0 mm | - | 162 W/m² | - |
| 1777985719 | 20.56° C | 50% | 1015.5 hPa | 0 mm | - | 262 W/m² | - |
| 1777983917 | 19.44° C | 54% | 1015.7 hPa | 0 mm | - | 862 W/m² | - |
| 1777971917 | 16.11° C | 71% | 1016.5 hPa | 0 mm | - | 398 W/m² | - |
| 1777971317 | 15.56° C | 66% | 1016.5 hPa | 0 mm | - | 248 W/m² | - |
| 1777968917 | 15° C | 71% | 1016.5 hPa | 0 mm | - | 239 W/m² | - |
| 1777967717 | 13.89° C | 77% | 1016.5 hPa | 0 mm | - | 453 W/m² | - |
* Rain latest hour (hover to see other rain measurements)
** Current wind speed in m/s (hover to see current wind gust speed)